Satellite: ORSTED
Catalog number: 25635
Epoch time:      103073.00477987
Element set:     853 
Inclination:       96.4531 deg
RA of node:        53.6354 deg
Eccentricity:    0.0143544
Arg of perigee:   254.8507 deg
Mean anomaly:     103.6773 deg
Mean motion:   14.44889714 rev/day
Decay rate:    1.1719E-005 rev/day^2
Epoch rev:           21332
Checksum:              317

Satellite: SUNSAT
Catalog number: 25636
Epoch time:      103071.97641671
Element set:     692 
Inclination:       96.4571 deg
RA of node:        51.4652 deg
Eccentricity:    0.0147401
Arg of perigee:   264.7328 deg
Mean anomaly:      93.7034 deg
Mean motion:   14.42979198 rev/day
Decay rate:    5.8300E-006 rev/day^2
Epoch rev:           21304
Checksum:              314

Satellite: UOSAT 12
Catalog number: 25693
Epoch time:      103073.12218780
Element set:     783 
Inclination:       64.5601 deg
RA of node:       298.6950 deg
Eccentricity:    0.0022532
Arg of perigee:   315.1476 deg
Mean anomaly:      44.7787 deg
Mean motion:   14.76418122 rev/day
Decay rate:    4.1399E-006 rev/day^2
Epoch rev:           20973
Checksum:              324

Satellite: FENGYUN 1C
Catalog number: 25730
Epoch time:      103073.18341421
Element set:     787 
Inclination:       98.6329 deg
RA of node:        96.6966 deg
Eccentricity:    0.0013738
Arg of perigee:   297.7414 deg
Mean anomaly:      62.2364 deg
Mean motion:   14.11736444 rev/day
Decay rate:    9.0000E-008 rev/day^2
Epoch rev:           19796
Checksum:              327

Satellite: ASTRA 1H
Catalog number: 25785
Epoch time:      103064.00000000
Element set:     374 
Inclination:        0.0122 deg
RA of node:       319.8851 deg
Eccentricity:    0.0002995
Arg of perigee:    65.1991 deg
Mean anomaly:     156.4596 deg
Mean motion:    1.00273184 rev/day
Decay rate:    1.1099E-006 rev/day^2
Epoch rev:            1364
Checksum:              262

Satellite: TERRA
Catalog number: 25994
Epoch time:      103073.27820474
Element set:     782 
Inclination:       98.1931 deg
RA of node:       149.1263 deg
Eccentricity:    0.0000991
Arg of perigee:    74.4274 deg
Mean anomaly:     285.7026 deg
Mean motion:   14.57097987 rev/day
Decay rate:    6.3399E-006 rev/day^2
Epoch rev:           17212
Checksum:              343

Satellite: JAWSAT
Catalog number: 26061
Epoch time:      103073.51696626
Element set:     787 
Inclination:      100.2024 deg
RA of node:       135.0226 deg
Eccentricity:    0.0034963
Arg of perigee:   211.2346 deg
Mean anomaly:     148.6758 deg
Mean motion:   14.37857127 rev/day
Decay rate:    8.2099E-006 rev/day^2
Epoch rev:           16397
Checksum:              315

Satellite: OPAL
Catalog number: 26063
Epoch time:      103073.18382779
Element set:     740 
Inclination:      100.2070 deg
RA of node:       132.0420 deg
Eccentricity:    0.0036728
Arg of perigee:   220.1320 deg
Mean anomaly:     139.7145 deg
Mean motion:   14.35492488 rev/day
Decay rate:    2.5500E-006 rev/day^2
Epoch rev:           16377
Checksum:              272

Satellite: ASUSAT
Catalog number: 26065
Epoch time:      103073.55843065
Element set:     755 
Inclination:      100.2079 deg
RA of node:       132.6408 deg
Eccentricity:    0.0037114
Arg of perigee:   219.8159 deg
Mean anomaly:     140.0297 deg
Mean motion:   14.35521560 rev/day
Decay rate:    2.8599E-006 rev/day^2
Epoch rev:           16382
Checksum:              399

Satellite: GOES 11
Catalog number: 26352
Epoch time:      103072.27054529
Element set:     62 
Inclination:        0.1963 deg
RA of node:       101.2821 deg
Eccentricity:    0.0003003
Arg of perigee:   219.5769 deg
Mean anomaly:     193.1924 deg
Mean motion:    1.00268207 rev/day
Decay rate:   -3.1999E-007 rev/day^2
Epoch rev:            1046
Checksum:              267

Satellite: EUTELSAT W4
Catalog number: 26369
Epoch time:      103070.87460649
Element set:     360 
Inclination:        0.0436 deg
RA of node:       355.4867 deg
Eccentricity:    0.0002848
Arg of perigee:   346.3950 deg
Mean anomaly:     178.1898 deg
Mean motion:    1.00275641 rev/day
Decay rate:    1.5699E-006 rev/day^2
Epoch rev:            1026
Checksum:              318

Satellite: FENGYUN 2B
Catalog number: 26382
Epoch time:      103072.57211943
Element set:     811 
Inclination:        0.5097 deg
RA of node:       288.7696 deg
Eccentricity:    0.0001591
Arg of perigee:   205.2766 deg
Mean anomaly:     347.0079 deg
Mean motion:    1.00265256 rev/day
Decay rate:   -3.2899E-006 rev/day^2
Epoch rev:             994
Checksum:              314

Satellite: EUTELSAT W1
Catalog number: 26487
Epoch time:      103071.96880926
Element set:     369 
Inclination:        0.0084 deg
RA of node:       202.1742 deg
Eccentricity:    0.0003716
Arg of perigee:   117.6638 deg
Mean anomaly:     209.1199 deg
Mean motion:    1.00273149 rev/day
Decay rate:    9.9999E-009 rev/day^2
Epoch rev:             924
Checksum:              320

Satellite: ASTRA 2B
Catalog number: 26494
Epoch time:      103064.00000000
Element set:     257 
Inclination:        0.0178 deg
RA of node:       354.5658 deg
Eccentricity:    0.0005000
Arg of perigee:   302.8402 deg
Mean anomaly:     253.0807 deg
Mean motion:    1.00276704 rev/day
Decay rate:    1.4099E-006 rev/day^2
Epoch rev:             906
Checksum:              235

Satellite: NOAA 16
Catalog number: 26536
Epoch time:      103072.40052826
Element set:     244 
Inclination:       98.9044 deg
RA of node:        20.5195 deg
Eccentricity:    0.0009876
Arg of perigee:   239.6347 deg
Mean anomaly:     120.3847 deg
Mean motion:   14.11920555 rev/day
Decay rate:    5.7500E-006 rev/day^2
Epoch rev:           12737
Checksum:              310

Satellite: SAUDISAT 1A
Catalog number: 26545
Epoch time:      103073.48194332
Element set:     424 
Inclination:       64.5595 deg
RA of node:       318.4245 deg
Eccentricity:    0.0050368
Arg of perigee:   234.9676 deg
Mean anomaly:     124.6714 deg
Mean motion:   14.79049057 rev/day
Decay rate:    1.3330E-005 rev/day^2
Epoch rev:           13275
Checksum:              312

Satellite: UNISAT
Catalog number: 26547
Epoch time:      103072.44196746
Element set:     443 
Inclination:       64.5582 deg
RA of node:       323.7639 deg
Eccentricity:    0.0057802
Arg of perigee:   236.8039 deg
Mean anomaly:     122.7518 deg
Mean motion:   14.79853638 rev/day
Decay rate:    2.4830E-005 rev/day^2
Epoch rev:           13257
Checksum:              332

Satellite: TIUNGSAT 1
Catalog number: 26548
Epoch time:      103073.12981265
Element set:     427 
Inclination:       64.5583 deg
RA of node:       312.1332 deg
Eccentricity:    0.0043738
Arg of perigee:   234.5513 deg
Mean anomaly:     125.1476 deg
Mean motion:   14.81356242 rev/day
Decay rate:    1.7610E-005 rev/day^2
Epoch rev:           13285
Checksum:              289

Satellite: SAUDISAT 1B
Catalog number: 26549
Epoch time:      103072.79093205
Element set:     715 
Inclination:       64.5506 deg
RA of node:       324.7790 deg
Eccentricity:    0.0055014
Arg of perigee:   234.9227 deg
Mean anomaly:     124.6683 deg
Mean motion:   14.77983208 rev/day
Decay rate:    1.5510E-005 rev/day^2
Epoch rev:           13257
Checksum:              409

Satellite: AMSAT OSCAR 40
Catalog number: 26609
Epoch time:      103070.09237754
Element set:     315 
Inclination:        8.2556 deg
RA of node:        60.3595 deg
Eccentricity:    0.7949525
Arg of perigee:   152.2353 deg
Mean anomaly:     297.2195 deg
Mean motion:    1.25597176 rev/day
Decay rate:   -2.0699E-006 rev/day^2
Epoch rev:            1084
Checksum:              327

Satellite: GOES 12
Catalog number: 26871
Epoch time:      103072.13619105
Element set:     862 
Inclination:        0.2719 deg
RA of node:       276.1159 deg
Eccentricity:    0.0002351
Arg of perigee:    23.4474 deg
Mean anomaly:     192.5145 deg
Mean motion:    1.00358473 rev/day
Decay rate:   -2.0499E-006 rev/day^2
Epoch rev:             606
Checksum:              276

Satellite: PCSAT
Catalog number: 26931
Epoch time:      103073.52967343
Element set:     424 
Inclination:       67.0458 deg
RA of node:       193.9255 deg
Eccentricity:    0.0005288
Arg of perigee:   271.1406 deg
Mean anomaly:      88.9088 deg
Mean motion:   14.29131443 rev/day
Decay rate:    4.0199E-006 rev/day^2
Epoch rev:            7577
Checksum:              328

Satellite: SAPPHIRE
Catalog number: 26932
Epoch time:      103072.87498635
Element set:     418 
Inclination:       67.0561 deg
RA of node:       195.3088 deg
Eccentricity:    0.0004253
Arg of perigee:   249.2223 deg
Mean anomaly:     110.8422 deg
Mean motion:   14.29305098 rev/day
Decay rate:    2.2399E-006 rev/day^2
Epoch rev:            7570
Checksum:              312

Satellite: ENVISAT
Catalog number: 27386
Epoch time:      103073.50718164
Element set:     973 
Inclination:       98.5512 deg
RA of node:       141.7192 deg
Eccentricity:    0.0000959
Arg of perigee:    69.4916 deg
Mean anomaly:     290.6371 deg
Mean motion:   14.32243396 rev/day
Decay rate:    7.9999E-008 rev/day^2
Epoch rev:            5417
Checksum:              346

Satellite: IDEFIX/ARIANE 
Catalog number: 27422
Epoch time:      103072.86533564
Element set:     254 
Inclination:       98.6924 deg
RA of node:       151.9545 deg
Eccentricity:    0.0013438
Arg of perigee:    82.1841 deg
Mean anomaly:     278.0864 deg
Mean motion:   14.27984145 rev/day
Decay rate:    3.7100E-006 rev/day^2
Epoch rev:            4478
Checksum:              325

